Location: Hope
(40.9110°N, 74.9680°W)
Time: 12:55:26
(UTC-05:00)

FORTE - Pass Details

Date: 08 December 2021
Orbit: 785 x 822 km, 70.0° (Epoch: 22 January)

Event Time Altitude Azimuth Distance (km) Brightness Sun altitude
Rises 04:13:12 0° 170° (S) 3,259 10.4 -33.0°
Reaches altitude 10° 04:15:56 10° 158° (SSE) 2,338 9.7 -32.4°
Maximum altitude 04:20:15 26° 104° (ESE) 1,531 9.1 -31.6°
Drops below altitude 10° 04:24:37 10° 50° (NE) 2,363 10.0 -30.8°
Sets 04:27:23 0° 38° (NE) 3,303 10.7 -30.3°
